• In Sweden
  • List of Countries
  • For 7 days
  • Water Temperature
  • Satellite Maps
  • Weather Map
  • Weather Widgets
  • user-avatar
    Login

    Hourly Weather Ipswich

    Today, 21 January, Sunday

    Time Temperature Precipitation Wind Pressure Humidity
    00:00 -2°C° 0 mm 5 mps 756 mmHg 92%
    01:00 -2°C° 0 mm 5 mps 757 mmHg 91%
    02:00 -2°C° 0 mm 5 mps 758 mmHg 89%
    03:00 -1°C° 0 mm 4 mps 758 mmHg 88%
    04:00 -1°C° 0 mm 4 mps 759 mmHg 88%
    05:00 0°C° 0 mm 3 mps 759 mmHg 87%
    06:00 0°C° 0 mm 3 mps 760 mmHg 86%
    07:00 +1°C° 0 mm 2 mps 760 mmHg 85%
    08:00 +1°C° 0 mm 2 mps 760 mmHg 83%
    09:00 +3°C° 0 mm 1 mps 760 mmHg 81%
    10:00 +2°C° 0.3 mm 2 mps 760 mmHg 81%
    11:00 +1°C° 0.3 mm 3 mps 759 mmHg 80%
    12:00 +1°C° 0.3 mm 4 mps 759 mmHg 80%
    13:00 +1°C° 0.6 mm 5 mps 759 mmHg 82%
    14:00 +1°C° 0.6 mm 6 mps 758 mmHg 85%
    15:00 0°C° 0.6 mm 7 mps 757 mmHg 88%
    16:00 0°C° 0.7 mm 7 mps 756 mmHg 90%
    17:00 +1°C° 0.7 mm 8 mps 756 mmHg 92%
    18:00 +1°C° 0.7 mm 8 mps 755 mmHg 94%
    19:00 +2°C° 0.7 mm 7 mps 754 mmHg 95%
    20:00 +2°C° 0.7 mm 6 mps 754 mmHg 96%
    21:00 +3°C° 0.7 mm 6 mps 753 mmHg 97%
    22:00 +3°C° 0.1 mm 5 mps 753 mmHg 97%
    23:00 +5°C° 0.1 mm 5 mps 753 mmHg 97%

    Tomorrow, 22 January, Monday

    Time Temperature Precipitation Wind Pressure Humidity
    00:00 +5°C° 0.1 mm 4 mps 753 mmHg 98%
    01:00 +6°C° 0 mm 5 mps 753 mmHg 97%
    02:00 +5°C° 0 mm 6 mps 753 mmHg 96%
    03:00 +5°C° 0 mm 6 mps 753 mmHg 95%
    04:00 +5°C° 0 mm 6 mps 754 mmHg 94%
    05:00 +4°C° 0 mm 6 mps 754 mmHg 94%
    06:00 +3°C° 0 mm 6 mps 755 mmHg 94%
    07:00 +3°C° 0 mm 6 mps 755 mmHg 93%
    08:00 +3°C° 0 mm 6 mps 756 mmHg 93%
    09:00 +2°C° 0 mm 6 mps 756 mmHg 92%
    10:00 +3°C° 0 mm 6 mps 757 mmHg 88%
    11:00 +4°C° 0 mm 6 mps 758 mmHg 83%
    12:00 +5°C° 0 mm 6 mps 758 mmHg 79%
    13:00 +5°C° 0 mm 6 mps 759 mmHg 80%
    14:00 +6°C° 0 mm 5 mps 759 mmHg 81%
    15:00 +6°C° 0 mm 5 mps 760 mmHg 81%
    16:00 +5°C° 0 mm 5 mps 760 mmHg 85%
    17:00 +5°C° 0 mm 4 mps 760 mmHg 88%
    18:00 +4°C° 0 mm 4 mps 761 mmHg 92%
    19:00 +3°C° 0 mm 4 mps 761 mmHg 92%
    20:00 +3°C° 0 mm 4 mps 762 mmHg 92%
    21:00 +2°C° 0 mm 5 mps 762 mmHg 93%
    22:00 +3°C° 0 mm 4 mps 762 mmHg 93%
    23:00 +3°C° 0 mm 4 mps 762 mmHg 93%

    Day after tomorrow, 23 January, Tuesday

    Time Temperature Precipitation Wind Pressure Humidity
    00:00 +1°C° 0 mm 4 mps 762 mmHg 93%
    01:00 +1°C° 0 mm 4 mps 762 mmHg 93%
    02:00 +1°C° 0 mm 4 mps 762 mmHg 93%
    03:00 +1°C° 0 mm 5 mps 762 mmHg 92%
    04:00 +2°C° 0 mm 5 mps 762 mmHg 92%
    05:00 +2°C° 0 mm 5 mps 761 mmHg 92%
    06:00 +2°C° 0 mm 6 mps 761 mmHg 92%
    07:00 +3°C° 0 mm 6 mps 761 mmHg 92%
    08:00 +4°C° 0 mm 7 mps 760 mmHg 91%
    09:00 +5°C° 0 mm 8 mps 760 mmHg 91%
    10:00 +6°C° 0.3 mm 8 mps 760 mmHg 91%
    11:00 +6°C° 0.3 mm 8 mps 760 mmHg 91%
    12:00 +7°C° 0.3 mm 9 mps 759 mmHg 92%
    13:00 +9°C° 0.1 mm 8 mps 759 mmHg 92%
    14:00 +10°C° 0.1 mm 8 mps 759 mmHg 92%
    15:00 +10°C° 0.1 mm 7 mps 758 mmHg 92%
    16:00 +10°C° 0 mm 7 mps 758 mmHg 91%
    17:00 +9°C° 0 mm 8 mps 758 mmHg 90%
    18:00 +9°C° 0 mm 8 mps 758 mmHg 90%
    19:00 +9°C° 0 mm 8 mps 758 mmHg 89%
    20:00 +9°C° 0 mm 8 mps 758 mmHg 89%
    21:00 +10°C° 0 mm 8 mps 758 mmHg 89%
    22:00 +10°C° 0 mm 9 mps 758 mmHg 89%
    23:00 +10°C° 0 mm 9 mps 757 mmHg 89%

    24 January, Wednesday

    Time Temperature Precipitation Wind Pressure Humidity
    00:00 +11°C° 0 mm 9 mps 757 mmHg 89%
    01:00 +11°C° 0 mm 9 mps 757 mmHg 88%
    02:00 +11°C° 0 mm 10 mps 756 mmHg 86%
    03:00 +11°C° 0 mm 10 mps 756 mmHg 85%
    04:00 +11°C° 0 mm 10 mps 755 mmHg 85%
    05:00 +11°C° 0 mm 11 mps 755 mmHg 85%
    06:00 +11°C° 0 mm 11 mps 754 mmHg 85%
    07:00 +11°C° 0 mm 11 mps 754 mmHg 85%
    08:00 +10°C° 0 mm 12 mps 753 mmHg 84%
    09:00 +10°C° 0 mm 12 mps 753 mmHg 84%
    10:00 +10°C° 1 mm 12 mps 753 mmHg 85%
    11:00 +10°C° 1 mm 12 mps 753 mmHg 86%
    12:00 +10°C° 1 mm 12 mps 753 mmHg 88%
    13:00 +9°C° 1.3 mm 10 mps 752 mmHg 89%
    14:00 +10°C° 1.3 mm 9 mps 752 mmHg 90%
    15:00 +9°C° 1.3 mm 7 mps 751 mmHg 91%
    16:00 +9°C° 1 mm 7 mps 751 mmHg 91%
    17:00 +8°C° 1 mm 7 mps 751 mmHg 91%
    18:00 +8°C° 1 mm 6 mps 751 mmHg 90%
    19:00 +6°C° 0.7 mm 7 mps 751 mmHg 87%
    20:00 +6°C° 0.7 mm 7 mps 752 mmHg 84%
    21:00 +5°C° 0.7 mm 8 mps 752 mmHg 81%
    22:00 +5°C° 0 mm 8 mps 752 mmHg 81%
    23:00 +5°C° 0 mm 8 mps 753 mmHg 82%

    25 January, Thursday

    Time Temperature Precipitation Wind Pressure Humidity
    00:00 +4°C° 0 mm 7 mps 753 mmHg 83%
    01:00 +4°C° 0 mm 7 mps 753 mmHg 83%
    02:00 +4°C° 0 mm 7 mps 753 mmHg 83%
    03:00 +4°C° 0 mm 7 mps 753 mmHg 83%
    04:00 +4°C° 0 mm 8 mps 753 mmHg 81%
    05:00 +4°C° 0 mm 8 mps 753 mmHg 80%
    06:00 +2°C° 0 mm 8 mps 753 mmHg 79%
    07:00 +4°C° 0 mm 8 mps 753 mmHg 77%
    08:00 +3°C° 0 mm 9 mps 754 mmHg 76%
    09:00 +3°C° 0 mm 9 mps 754 mmHg 74%
    10:00 +5°C° 0 mm 9 mps 754 mmHg 71%
    11:00 +6°C° 0 mm 9 mps 754 mmHg 68%
    12:00 +6°C° 0 mm 9 mps 754 mmHg 66%
    13:00 +6°C° 0 mm 9 mps 754 mmHg 67%
    14:00 +6°C° 0 mm 8 mps 754 mmHg 68%
    15:00 +6°C° 0 mm 7 mps 754 mmHg 70%
    16:00 +5°C° 0 mm 7 mps 754 mmHg 73%
    17:00 +4°C° 0 mm 6 mps 755 mmHg 76%
    18:00 +3°C° 0 mm 6 mps 755 mmHg 79%
    19:00 +3°C° 0 mm 6 mps 755 mmHg 79%
    20:00 +3°C° 0 mm 6 mps 755 mmHg 79%
    21:00 +3°C° 0 mm 6 mps 756 mmHg 79%
    22:00 +3°C° 0 mm 6 mps 756 mmHg 79%
    23:00 +3°C° 0 mm 6 mps 756 mmHg 79%

    26 January, Friday

    Time Temperature Precipitation Wind Pressure Humidity
    00:00 +3°C° 0 mm 6 mps 756 mmHg 79%
    01:00 +3°C° 0 mm 6 mps 756 mmHg 82%
    02:00 +3°C° 0 mm 6 mps 756 mmHg 84%
    03:00 +3°C° 0 mm 6 mps 756 mmHg 87%
    04:00 +3°C° 0.1 mm 6 mps 757 mmHg 87%
    05:00 +3°C° 0.1 mm 6 mps 758 mmHg 88%
    06:00 +3°C° 0.1 mm 6 mps 758 mmHg 88%
    07:00 +3°C° 0.1 mm 6 mps 759 mmHg 86%
    08:00 +3°C° 0.1 mm 7 mps 760 mmHg 85%
    09:00 +1°C° 0.1 mm 8 mps 761 mmHg 83%
    10:00 +2°C° 0.1 mm 8 mps 762 mmHg 80%
    11:00 +2°C° 0.1 mm 8 mps 763 mmHg 77%
    12:00 +2°C° 0.1 mm 8 mps 764 mmHg 73%
    13:00 +4°C° 0 mm 8 mps 764 mmHg 74%
    14:00 +4°C° 0 mm 8 mps 765 mmHg 75%
    15:00 +4°C° 0 mm 7 mps 765 mmHg 75%
    16:00 +2°C° 0.1 mm 8 mps 766 mmHg 77%
    17:00 +2°C° 0.1 mm 8 mps 767 mmHg 80%
    18:00 +2°C° 0.1 mm 8 mps 768 mmHg 82%
    19:00 +2°C° 0.1 mm 8 mps 769 mmHg 81%
    20:00 +1°C° 0.1 mm 8 mps 770 mmHg 80%
    21:00 +1°C° 0.1 mm 8 mps 771 mmHg 79%
    22:00 0°C° 0 mm 8 mps 771 mmHg 80%
    23:00 0°C° 0 mm 7 mps 772 mmHg 81%
    Show more